Year,Month,Day,Hour,Minute,Value (Times are PST for windgust in km/hr)
2012,12,05,00,00,24.20
2012,12,05,00,01,33.80
2012,12,05,00,02,35.40
2012,12,05,00,03,32.20
2012,12,05,00,04,22.50
2012,12,05,00,05,22.50
2012,12,05,00,06,27.40
2012,12,05,00,07,19.30
2012,12,05,00,08,27.40
2012,12,05,00,09,30.60
2012,12,05,00,10,24.20
2012,12,05,00,11,25.70
2012,12,05,00,12,29.00
2012,12,05,00,13,27.40
2012,12,05,00,14,24.20
2012,12,05,00,15,25.70
2012,12,05,00,16,25.70
2012,12,05,00,17,32.20
2012,12,05,00,18,33.80
2012,12,05,00,19,25.70
2012,12,05,00,20,38.60
2012,12,05,00,21,37.00
2012,12,05,00,22,22.50
2012,12,05,00,23,22.50
2012,12,05,00,24,22.50
2012,12,05,00,25,24.20
2012,12,05,00,26,30.60
2012,12,05,00,27,30.60
2012,12,05,00,28,33.80
2012,12,05,00,29,33.80
2012,12,05,00,30,33.80
2012,12,05,00,31,45.10
2012,12,05,00,32,37.00
2012,12,05,00,33,43.50
2012,12,05,00,34,51.50
2012,12,05,00,35,41.80
2012,12,05,00,36,32.20
2012,12,05,00,37,29.00
2012,12,05,00,38,33.80
2012,12,05,00,39,20.90
2012,12,05,00,40,25.70
2012,12,05,00,41,30.60
2012,12,05,00,42,41.80
2012,12,05,00,43,32.20
2012,12,05,00,44,25.70
2012,12,05,00,45,33.80
2012,12,05,00,46,46.70
2012,12,05,00,47,40.20
2012,12,05,00,48,22.50
2012,12,05,00,49,35.40
2012,12,05,00,50,29.00
2012,12,05,00,51,24.20
2012,12,05,00,52,38.60
2012,12,05,00,53,29.00
2012,12,05,00,54,32.20
2012,12,05,00,55,27.40
2012,12,05,00,56,43.50
2012,12,05,00,57,35.40
2012,12,05,00,58,33.80
2012,12,05,00,59,29.00
2012,12,05,01,00,25.70
2012,12,05,01,01,37.00
2012,12,05,01,02,38.60
2012,12,05,01,03,32.20
2012,12,05,01,04,35.40
2012,12,05,01,05,35.40
2012,12,05,01,06,40.20
2012,12,05,01,07,46.70
2012,12,05,01,08,37.00
2012,12,05,01,09,30.60
2012,12,05,01,10,25.70
2012,12,05,01,11,30.60
2012,12,05,01,12,41.80
2012,12,05,01,13,37.00
2012,12,05,01,14,33.80
2012,12,05,01,15,37.00
2012,12,05,01,16,35.40
2012,12,05,01,17,37.00
2012,12,05,01,18,37.00
2012,12,05,01,19,35.40
2012,12,05,01,20,29.00
2012,12,05,01,21,37.00
2012,12,05,01,22,40.20
2012,12,05,01,23,27.40
2012,12,05,01,24,25.70
2012,12,05,01,25,32.20
2012,12,05,01,26,35.40
2012,12,05,01,27,32.20
2012,12,05,01,28,27.40
2012,12,05,01,29,24.20
2012,12,05,01,30,27.40
2012,12,05,01,31,37.00
2012,12,05,01,32,32.20
2012,12,05,01,33,30.60
2012,12,05,01,34,35.40
2012,12,05,01,35,33.80
2012,12,05,01,36,40.20
2012,12,05,01,37,48.30
2012,12,05,01,38,29.00
2012,12,05,01,39,43.50
2012,12,05,01,40,48.30
2012,12,05,01,41,35.40
2012,12,05,01,42,33.80
2012,12,05,01,43,33.80
2012,12,05,01,44,43.50
2012,12,05,01,45,37.00
2012,12,05,01,46,32.20
2012,12,05,01,47,37.00
2012,12,05,01,48,30.60
2012,12,05,01,49,29.00
2012,12,05,01,50,29.00
2012,12,05,01,51,33.80
2012,12,05,01,52,32.20
2012,12,05,01,53,40.20
2012,12,05,01,54,37.00
2012,12,05,01,55,33.80
2012,12,05,01,56,32.20
2012,12,05,01,57,25.70
2012,12,05,01,58,19.30
2012,12,05,01,59,27.40
2012,12,05,02,00,27.40
2012,12,05,02,01,29.00
2012,12,05,02,02,33.80
2012,12,05,02,03,27.40
2012,12,05,02,04,27.40
2012,12,05,02,05,35.40
2012,12,05,02,06,24.20
2012,12,05,02,07,22.50
2012,12,05,02,08,37.00
2012,12,05,02,09,29.00
2012,12,05,02,10,17.70
2012,12,05,02,11,32.20
2012,12,05,02,12,29.00
2012,12,05,02,13,27.40
2012,12,05,02,14,27.40
2012,12,05,02,15,37.00
2012,12,05,02,16,37.00
2012,12,05,02,17,41.80
2012,12,05,02,18,30.60
2012,12,05,02,19,35.40
2012,12,05,02,20,35.40
2012,12,05,02,21,35.40
2012,12,05,02,22,37.00
2012,12,05,02,23,37.00
2012,12,05,02,24,33.80
2012,12,05,02,25,20.90
2012,12,05,02,26,32.20
2012,12,05,02,27,29.00
2012,12,05,02,28,33.80
2012,12,05,02,29,35.40
2012,12,05,02,30,29.00
2012,12,05,02,31,32.20
2012,12,05,02,32,16.10
2012,12,05,02,33,29.00
2012,12,05,02,34,29.00
2012,12,05,02,35,20.90
2012,12,05,02,36,22.50
2012,12,05,02,37,27.40
2012,12,05,02,38,30.60
2012,12,05,02,39,32.20
2012,12,05,02,40,22.50
2012,12,05,02,41,20.90
2012,12,05,02,42,29.00
2012,12,05,02,43,20.90
2012,12,05,02,44,19.30
2012,12,05,02,45,22.50
2012,12,05,02,46,14.50
2012,12,05,02,47,14.50
2012,12,05,02,48,11.30
2012,12,05,02,49,27.40
2012,12,05,02,50,29.00
2012,12,05,02,51,24.20
2012,12,05,02,52,12.90
2012,12,05,02,53,24.20
2012,12,05,02,54,32.20
2012,12,05,02,55,29.00
2012,12,05,02,56,41.80
2012,12,05,02,57,27.40
2012,12,05,02,58,29.00
2012,12,05,02,59,33.80
2012,12,05,03,00,27.40
2012,12,05,03,01,27.40
2012,12,05,03,02,27.40
2012,12,05,03,03,24.20
2012,12,05,03,04,29.00
2012,12,05,03,05,33.80
2012,12,05,03,06,24.20
2012,12,05,03,07,29.00
2012,12,05,03,08,24.20
2012,12,05,03,09,27.40
2012,12,05,03,10,30.60
2012,12,05,03,11,32.20
2012,12,05,03,12,32.20
2012,12,05,03,13,30.60
2012,12,05,03,14,29.00
2012,12,05,03,15,24.20
2012,12,05,03,16,22.50
2012,12,05,03,17,29.00
2012,12,05,03,18,33.80
2012,12,05,03,19,33.80
2012,12,05,03,20,27.40
2012,12,05,03,21,20.90
2012,12,05,03,22,14.50
2012,12,05,03,23,11.30
2012,12,05,03,24,17.70
2012,12,05,03,25,9.60
2012,12,05,03,26,17.70
2012,12,05,03,27,30.60
2012,12,05,03,28,20.90
2012,12,05,03,29,20.90
2012,12,05,03,30,24.20
2012,12,05,03,31,30.60
2012,12,05,03,32,37.00
2012,12,05,03,33,32.20
2012,12,05,03,34,25.70
2012,12,05,03,35,30.60
2012,12,05,03,36,32.20
2012,12,05,03,37,24.20
2012,12,05,03,38,40.20
2012,12,05,03,39,29.00
2012,12,05,03,40,29.00
2012,12,05,03,41,30.60
2012,12,05,03,42,33.80
2012,12,05,03,43,33.80
2012,12,05,03,44,19.30
2012,12,05,03,45,27.40
2012,12,05,03,46,24.20
2012,12,05,03,47,27.40
2012,12,05,03,48,25.70
2012,12,05,03,49,27.40
2012,12,05,03,50,22.50
2012,12,05,03,51,20.90
2012,12,05,03,52,19.30
2012,12,05,03,53,37.00
2012,12,05,03,54,35.40
2012,12,05,03,55,40.20
2012,12,05,03,56,38.60
2012,12,05,03,57,43.50
2012,12,05,03,58,30.60
2012,12,05,03,59,24.20
2012,12,05,04,00,37.00
2012,12,05,04,01,32.20
2012,12,05,04,02,46.70
2012,12,05,04,03,38.60
2012,12,05,04,04,37.00
2012,12,05,04,05,30.60
2012,12,05,04,06,22.50
2012,12,05,04,07,20.90
2012,12,05,04,08,16.10
2012,12,05,04,09,33.80
2012,12,05,04,10,35.40
2012,12,05,04,11,25.70
2012,12,05,04,12,27.40
2012,12,05,04,13,22.50
2012,12,05,04,14,27.40
2012,12,05,04,15,27.40
2012,12,05,04,16,20.90
2012,12,05,04,17,20.90
2012,12,05,04,18,35.40
2012,12,05,04,19,22.50
2012,12,05,04,20,38.60
2012,12,05,04,21,33.80
2012,12,05,04,22,19.30
2012,12,05,04,23,33.80
2012,12,05,04,24,33.80
2012,12,05,04,25,29.00
2012,12,05,04,26,22.50
2012,12,05,04,27,20.90
2012,12,05,04,28,24.20
2012,12,05,04,29,24.20
2012,12,05,04,30,32.20
2012,12,05,04,31,33.80
2012,12,05,04,32,33.80
2012,12,05,04,33,27.40
2012,12,05,04,34,29.00
2012,12,05,04,35,16.10
2012,12,05,04,36,25.70
2012,12,05,04,37,22.50
2012,12,05,04,38,22.50
2012,12,05,04,39,25.70
2012,12,05,04,40,19.30
2012,12,05,04,41,16.10
2012,12,05,04,42,29.00
2012,12,05,04,43,32.20
2012,12,05,04,44,24.20
2012,12,05,04,45,17.70
2012,12,05,04,46,32.20
2012,12,05,04,47,32.20
2012,12,05,04,48,29.00
2012,12,05,04,49,22.50
2012,12,05,04,50,22.50
2012,12,05,04,51,17.70
2012,12,05,04,52,20.90
2012,12,05,04,53,17.70
2012,12,05,04,54,17.70
2012,12,05,04,55,24.20
2012,12,05,04,56,19.30
2012,12,05,04,57,25.70
2012,12,05,04,58,22.50
2012,12,05,04,59,12.90
2012,12,05,05,00,29.00
2012,12,05,05,01,25.70
2012,12,05,05,02,25.70
2012,12,05,05,03,25.70
2012,12,05,05,04,17.70
2012,12,05,05,05,20.90
2012,12,05,05,06,16.10
2012,12,05,05,07,16.10
2012,12,05,05,08,22.50
2012,12,05,05,09,19.30
2012,12,05,05,10,19.30
2012,12,05,05,11,19.30
2012,12,05,05,12,29.00
2012,12,05,05,13,27.40
2012,12,05,05,14,27.40
2012,12,05,05,15,20.90
2012,12,05,05,16,20.90
2012,12,05,05,17,19.30
2012,12,05,05,18,27.40
2012,12,05,05,19,22.50
2012,12,05,05,20,29.00
2012,12,05,05,21,16.10
2012,12,05,05,22,27.40
2012,12,05,05,23,25.70
2012,12,05,05,24,24.20
2012,12,05,05,25,25.70
2012,12,05,05,26,27.40
2012,12,05,05,27,20.90
2012,12,05,05,28,24.20
2012,12,05,05,29,17.70
2012,12,05,05,30,19.30
2012,12,05,05,31,19.30
2012,12,05,05,32,12.90
2012,12,05,05,33,12.90
2012,12,05,05,34,19.30
2012,12,05,05,35,17.70
2012,12,05,05,36,17.70
2012,12,05,05,37,19.30
2012,12,05,05,38,19.30
2012,12,05,05,39,17.70
2012,12,05,05,40,22.50
2012,12,05,05,41,16.10
2012,12,05,05,42,24.20
2012,12,05,05,43,20.90
2012,12,05,05,44,17.70
2012,12,05,05,45,12.90
2012,12,05,05,46,19.30
2012,12,05,05,47,17.70
2012,12,05,05,48,22.50
2012,12,05,05,49,19.30
2012,12,05,05,50,17.70
2012,12,05,05,51,20.90
2012,12,05,05,52,24.20
2012,12,05,05,53,14.50
2012,12,05,05,54,17.70
2012,12,05,05,55,17.70
2012,12,05,05,56,19.30
2012,12,05,05,57,12.90
2012,12,05,05,58,19.30
2012,12,05,05,59,17.70
2012,12,05,06,00,20.90
2012,12,05,06,01,16.10
2012,12,05,06,02,19.30
2012,12,05,06,03,12.90
2012,12,05,06,04,27.40
2012,12,05,06,05,17.70
2012,12,05,06,06,24.20
2012,12,05,06,07,22.50
2012,12,05,06,08,17.70
2012,12,05,06,09,22.50
2012,12,05,06,10,22.50
2012,12,05,06,11,17.70
2012,12,05,06,12,12.90
2012,12,05,06,13,24.20
2012,12,05,06,14,17.70
2012,12,05,06,15,30.60
2012,12,05,06,16,22.50
2012,12,05,06,17,25.70
2012,12,05,06,18,16.10
2012,12,05,06,19,20.90
2012,12,05,06,20,35.40
2012,12,05,06,21,30.60
2012,12,05,06,22,22.50
2012,12,05,06,23,24.20
2012,12,05,06,24,19.30
2012,12,05,06,25,16.10
2012,12,05,06,26,17.70
2012,12,05,06,27,16.10
2012,12,05,06,28,19.30
2012,12,05,06,29,11.30
2012,12,05,06,30,12.90
2012,12,05,06,31,11.30
2012,12,05,06,32,16.10
2012,12,05,06,33,16.10
2012,12,05,06,34,14.50
2012,12,05,06,35,12.90
2012,12,05,06,36,17.70
2012,12,05,06,37,19.30
2012,12,05,06,38,14.50
2012,12,05,06,39,19.30
2012,12,05,06,40,16.10
2012,12,05,06,41,16.10
2012,12,05,06,42,11.30
2012,12,05,06,43,17.70
2012,12,05,06,44,17.70
2012,12,05,06,45,20.90
2012,12,05,06,46,16.10
2012,12,05,06,47,20.90
2012,12,05,06,48,16.10
2012,12,05,06,49,16.10
2012,12,05,06,50,16.10
2012,12,05,06,51,17.70
2012,12,05,06,52,17.70
2012,12,05,06,53,27.40
2012,12,05,06,54,12.90
2012,12,05,06,55,27.40
2012,12,05,06,56,17.70
2012,12,05,06,57,20.90
2012,12,05,06,58,25.70
2012,12,05,06,59,27.40
2012,12,05,07,00,22.50
2012,12,05,07,01,29.00
2012,12,05,07,02,27.40
2012,12,05,07,03,22.50
2012,12,05,07,04,22.50
2012,12,05,07,05,33.80
2012,12,05,07,06,27.40
2012,12,05,07,07,24.20
2012,12,05,07,08,19.30
2012,12,05,07,09,19.30
2012,12,05,07,10,22.50
2012,12,05,07,11,22.50
2012,12,05,07,12,29.00
2012,12,05,07,13,24.20
2012,12,05,07,14,19.30
2012,12,05,07,15,22.50
2012,12,05,07,16,24.20
2012,12,05,07,17,25.70
2012,12,05,07,18,24.20
2012,12,05,07,19,27.40
2012,12,05,07,20,20.90
2012,12,05,07,21,17.70
2012,12,05,07,22,19.30
2012,12,05,07,23,20.90
2012,12,05,07,24,25.70
2012,12,05,07,25,24.20
2012,12,05,07,26,22.50
2012,12,05,07,27,25.70
2012,12,05,07,28,19.30
2012,12,05,07,29,12.90
2012,12,05,07,30,12.90
2012,12,05,07,31,22.50
2012,12,05,07,32,24.20
2012,12,05,07,33,19.30
2012,12,05,07,34,24.20
2012,12,05,07,35,20.90
2012,12,05,07,36,17.70
2012,12,05,07,37,25.70
2012,12,05,07,38,16.10
2012,12,05,07,39,17.70
2012,12,05,07,40,22.50
2012,12,05,07,41,22.50
2012,12,05,07,42,19.30
2012,12,05,07,43,16.10
2012,12,05,07,44,17.70
2012,12,05,07,45,12.90
2012,12,05,07,46,12.90
2012,12,05,07,47,12.90
2012,12,05,07,48,12.90
2012,12,05,07,49,17.70
2012,12,05,07,50,16.10
2012,12,05,07,51,11.30
2012,12,05,07,52,12.90
2012,12,05,07,53,12.90
2012,12,05,07,54,19.30
2012,12,05,07,55,12.90
2012,12,05,07,56,16.10
2012,12,05,07,57,22.50
2012,12,05,07,58,19.30
2012,12,05,07,59,19.30
2012,12,05,08,00,19.30
2012,12,05,08,01,20.90
2012,12,05,08,02,20.90
2012,12,05,08,03,20.90
2012,12,05,08,04,19.30
2012,12,05,08,05,22.50
2012,12,05,08,06,24.20
2012,12,05,08,07,27.40
2012,12,05,08,08,24.20
2012,12,05,08,09,20.90
2012,12,05,08,10,24.20
2012,12,05,08,11,20.90
2012,12,05,08,12,27.40
2012,12,05,08,13,20.90
2012,12,05,08,14,22.50
2012,12,05,08,15,20.90
2012,12,05,08,16,17.70
2012,12,05,08,17,12.90
2012,12,05,08,18,19.30
2012,12,05,08,19,12.90
2012,12,05,08,20,17.70
2012,12,05,08,21,16.10
2012,12,05,08,22,17.70
2012,12,05,08,23,17.70
2012,12,05,08,24,9.60
2012,12,05,08,25,12.90
2012,12,05,08,26,12.90
2012,12,05,08,27,12.90
2012,12,05,08,28,11.30
2012,12,05,08,29,11.30
2012,12,05,08,30,9.60
2012,12,05,08,31,17.70
2012,12,05,08,32,14.50
2012,12,05,08,33,16.10
2012,12,05,08,34,12.90
2012,12,05,08,35,16.10
2012,12,05,08,36,14.50
2012,12,05,08,37,17.70
2012,12,05,08,38,11.30
2012,12,05,08,39,12.90
2012,12,05,08,40,12.90
2012,12,05,08,41,11.30
2012,12,05,08,42,11.30
2012,12,05,08,43,11.30
2012,12,05,08,44,12.90
2012,12,05,08,45,12.90
2012,12,05,08,46,11.30
2012,12,05,08,47,17.70
2012,12,05,08,48,19.30
2012,12,05,08,49,12.90
2012,12,05,08,50,16.10
2012,12,05,08,51,16.10
2012,12,05,08,52,16.10
2012,12,05,08,53,17.70
2012,12,05,08,54,16.10
2012,12,05,08,55,12.90
2012,12,05,08,56,16.10
2012,12,05,08,57,12.90
2012,12,05,08,58,12.90
2012,12,05,08,59,11.30
2012,12,05,09,00,12.90
2012,12,05,09,01,12.90
2012,12,05,09,02,16.10
2012,12,05,09,03,16.10
2012,12,05,09,04,12.90
2012,12,05,09,05,12.90
2012,12,05,09,06,11.30
2012,12,05,09,07,17.70
2012,12,05,09,08,17.70
2012,12,05,09,09,19.30
2012,12,05,09,10,20.90
2012,12,05,09,11,14.50
2012,12,05,09,12,12.90
2012,12,05,09,13,12.90
2012,12,05,09,14,16.10
2012,12,05,09,15,12.90
2012,12,05,09,16,11.30
2012,12,05,09,17,17.70
2012,12,05,09,18,12.90
2012,12,05,09,19,9.60
2012,12,05,09,20,12.90
2012,12,05,09,21,8.10
2012,12,05,09,22,12.90
2012,12,05,09,23,12.90
2012,12,05,09,24,9.60
2012,12,05,09,25,6.40
2012,12,05,09,26,11.30
2012,12,05,09,27,11.30
2012,12,05,09,28,8.10
2012,12,05,09,29,8.10
2012,12,05,09,30,8.10
2012,12,05,09,31,8.10
2012,12,05,09,32,4.80
2012,12,05,09,33,9.60
2012,12,05,09,34,12.90
2012,12,05,09,35,16.10
2012,12,05,09,36,17.70
2012,12,05,09,37,16.10
2012,12,05,09,38,19.30
2012,12,05,09,39,19.30
2012,12,05,09,40,17.70
2012,12,05,09,41,17.70
2012,12,05,09,42,22.50
2012,12,05,09,43,11.30
2012,12,05,09,44,19.30
2012,12,05,09,45,17.70
2012,12,05,09,46,12.90
2012,12,05,09,47,12.90
2012,12,05,09,48,17.70
2012,12,05,09,49,17.70
2012,12,05,09,50,17.70
2012,12,05,09,51,19.30
2012,12,05,09,52,17.70
2012,12,05,09,53,20.90
2012,12,05,09,54,20.90
2012,12,05,09,55,20.90
2012,12,05,09,56,17.70
2012,12,05,09,57,20.90
2012,12,05,09,58,19.30
2012,12,05,09,59,17.70
2012,12,05,10,00,24.20
2012,12,05,10,01,22.50
2012,12,05,10,02,17.70
2012,12,05,10,03,14.50
2012,12,05,10,04,12.90
2012,12,05,10,05,17.70
2012,12,05,10,06,12.90
2012,12,05,10,07,19.30
2012,12,05,10,08,12.90
2012,12,05,10,09,17.70
2012,12,05,10,10,20.90
2012,12,05,10,11,16.10
2012,12,05,10,12,27.40
2012,12,05,10,13,6.40
2012,12,05,10,14,6.40
2012,12,05,10,15,19.30
2012,12,05,10,16,20.90
2012,12,05,10,17,16.10
2012,12,05,10,18,16.10
2012,12,05,10,19,14.50
2012,12,05,10,20,12.90
2012,12,05,10,21,12.90
2012,12,05,10,22,16.10
2012,12,05,10,23,19.30
2012,12,05,10,24,16.10
2012,12,05,10,25,12.90
2012,12,05,10,26,12.90
2012,12,05,10,27,8.10
2012,12,05,10,28,11.30
2012,12,05,10,29,8.10
2012,12,05,10,30,11.30
2012,12,05,10,31,12.90
2012,12,05,10,32,16.10
2012,12,05,10,33,16.10
2012,12,05,10,34,12.90
2012,12,05,10,35,16.10
2012,12,05,10,36,24.20
2012,12,05,10,37,17.70
2012,12,05,10,38,24.20
2012,12,05,10,39,22.50
2012,12,05,10,40,17.70
2012,12,05,10,41,19.30
2012,12,05,10,42,16.10
2012,12,05,10,43,19.30
2012,12,05,10,44,24.20
2012,12,05,10,45,19.30
2012,12,05,10,46,16.10
2012,12,05,10,47,22.50
2012,12,05,10,48,14.50
2012,12,05,10,49,24.20
2012,12,05,10,50,27.40
2012,12,05,10,51,22.50
2012,12,05,10,52,17.70
2012,12,05,10,53,12.90
2012,12,05,10,54,20.90
2012,12,05,10,55,27.40
2012,12,05,10,56,20.90
2012,12,05,10,57,33.80
2012,12,05,10,58,19.30
2012,12,05,10,59,37.00
2012,12,05,11,00,35.40
2012,12,05,11,01,37.00
2012,12,05,11,02,32.20
2012,12,05,11,03,41.80
2012,12,05,11,04,40.20
2012,12,05,11,05,29.00
2012,12,05,11,06,20.90
2012,12,05,11,07,19.30
2012,12,05,11,08,30.60
2012,12,05,11,09,16.10
2012,12,05,11,10,25.70
2012,12,05,11,11,17.70
2012,12,05,11,12,22.50
2012,12,05,11,13,22.50
2012,12,05,11,14,17.70
2012,12,05,11,15,12.90
2012,12,05,11,16,19.30
2012,12,05,11,17,17.70
2012,12,05,11,18,16.10
2012,12,05,11,19,17.70
2012,12,05,11,20,12.90
2012,12,05,11,21,9.60
2012,12,05,11,22,12.90
2012,12,05,11,23,12.90
2012,12,05,11,24,12.90
2012,12,05,11,25,9.60
2012,12,05,11,26,8.10
2012,12,05,11,27,6.40
2012,12,05,11,28,6.40
2012,12,05,11,29,8.10
2012,12,05,11,30,8.10
2012,12,05,11,31,11.30
2012,12,05,11,32,12.90
2012,12,05,11,33,12.90
2012,12,05,11,34,8.10
2012,12,05,11,35,8.10
2012,12,05,11,36,11.30
2012,12,05,11,37,8.10
2012,12,05,11,38,11.30
2012,12,05,11,39,6.40
2012,12,05,11,40,11.30
2012,12,05,11,41,12.90
2012,12,05,11,42,17.70
2012,12,05,11,43,16.10
2012,12,05,11,44,14.50
2012,12,05,11,45,12.90
2012,12,05,11,46,19.30
2012,12,05,11,47,12.90
2012,12,05,11,48,11.30
2012,12,05,11,49,12.90
2012,12,05,11,50,16.10
2012,12,05,11,51,17.70
2012,12,05,11,52,12.90
2012,12,05,11,53,12.90
2012,12,05,11,54,9.60
2012,12,05,11,55,14.50
2012,12,05,11,56,12.90
2012,12,05,11,57,11.30
2012,12,05,11,58,8.10
2012,12,05,11,59,4.80
2012,12,05,12,00,3.20
2012,12,05,12,01,6.40
2012,12,05,12,02,11.30
2012,12,05,12,03,12.90
2012,12,05,12,04,14.50
2012,12,05,12,05,11.30
2012,12,05,12,06,12.90
2012,12,05,12,07,9.60
2012,12,05,12,08,9.60
2012,12,05,12,09,9.60
2012,12,05,12,10,9.60
2012,12,05,12,11,8.10
2012,12,05,12,12,3.20
2012,12,05,12,13,9.60
2012,12,05,12,14,9.60
2012,12,05,12,15,12.90
2012,12,05,12,16,11.30
2012,12,05,12,17,12.90
2012,12,05,12,18,9.60
2012,12,05,12,19,12.90
2012,12,05,12,20,17.70
2012,12,05,12,21,16.10
2012,12,05,12,22,12.90
2012,12,05,12,23,8.10
2012,12,05,12,24,11.30
2012,12,05,12,25,12.90
2012,12,05,12,26,11.30
2012,12,05,12,27,11.30
2012,12,05,12,28,11.30
2012,12,05,12,29,9.60
2012,12,05,12,30,12.90
2012,12,05,12,31,14.50
2012,12,05,12,32,11.30
2012,12,05,12,33,12.90
2012,12,05,12,34,11.30
2012,12,05,12,35,11.30
2012,12,05,12,36,11.30
2012,12,05,12,37,11.30
2012,12,05,12,38,20.90
2012,12,05,12,39,16.10
2012,12,05,12,40,17.70
2012,12,05,12,41,14.50
2012,12,05,12,42,12.90
2012,12,05,12,43,14.50
2012,12,05,12,44,16.10
2012,12,05,12,45,20.90
2012,12,05,12,46,16.10
2012,12,05,12,47,11.30
2012,12,05,12,48,11.30
2012,12,05,12,49,14.50
2012,12,05,12,50,11.30
2012,12,05,12,51,11.30
2012,12,05,12,52,11.30
2012,12,05,12,53,25.70
2012,12,05,12,54,27.40
2012,12,05,12,55,24.20
2012,12,05,12,56,19.30
2012,12,05,12,57,25.70
2012,12,05,12,58,24.20
2012,12,05,12,59,22.50
2012,12,05,13,00,27.40
2012,12,05,13,01,22.50
2012,12,05,13,02,17.70
2012,12,05,13,03,17.70
2012,12,05,13,04,25.70
2012,12,05,13,05,22.50
2012,12,05,13,06,22.50
2012,12,05,13,07,19.30
2012,12,05,13,08,20.90
2012,12,05,13,09,9.60
2012,12,05,13,10,9.60
2012,12,05,13,11,20.90
2012,12,05,13,12,20.90
2012,12,05,13,13,20.90
2012,12,05,13,14,12.90
2012,12,05,13,15,16.10
2012,12,05,13,16,17.70
2012,12,05,13,17,12.90
2012,12,05,13,18,9.60
2012,12,05,13,19,11.30
2012,12,05,13,20,12.90
2012,12,05,13,21,16.10
2012,12,05,13,22,16.10
2012,12,05,13,23,19.30
2012,12,05,13,24,12.90
2012,12,05,13,25,11.30
2012,12,05,13,26,19.30
2012,12,05,13,27,19.30
2012,12,05,13,28,12.90
2012,12,05,13,29,14.50
2012,12,05,13,30,14.50
2012,12,05,13,31,19.30
2012,12,05,13,32,12.90
2012,12,05,13,33,9.60
2012,12,05,13,34,20.90
2012,12,05,13,35,11.30
2012,12,05,13,36,9.60
2012,12,05,13,37,14.50
2012,12,05,13,38,14.50
2012,12,05,13,39,12.90
2012,12,05,13,40,11.30
2012,12,05,13,41,12.90
2012,12,05,13,42,11.30
2012,12,05,13,43,11.30
2012,12,05,13,44,12.90
2012,12,05,13,45,9.60
2012,12,05,13,46,11.30
2012,12,05,13,47,16.10
2012,12,05,13,48,9.60
2012,12,05,13,49,6.40
2012,12,05,13,50,6.40
2012,12,05,13,51,8.10
2012,12,05,13,52,12.90
2012,12,05,13,53,11.30
2012,12,05,13,54,14.50
2012,12,05,13,55,14.50
2012,12,05,13,56,12.90
2012,12,05,13,57,11.30
2012,12,05,13,58,11.30
2012,12,05,13,59,9.60
2012,12,05,14,00,9.60
2012,12,05,14,01,6.40
2012,12,05,14,02,3.20
2012,12,05,14,03,3.20
2012,12,05,14,04,6.40
2012,12,05,14,05,8.10
2012,12,05,14,06,8.10
2012,12,05,14,07,3.20
2012,12,05,14,08,6.40
2012,12,05,14,09,6.40
2012,12,05,14,10,3.20
2012,12,05,14,11,8.10
2012,12,05,14,12,12.90
2012,12,05,14,13,3.20
2012,12,05,14,14,8.10
2012,12,05,14,15,4.80
2012,12,05,14,16,6.40
2012,12,05,14,17,4.80
2012,12,05,14,18,3.20
2012,12,05,14,19,1.60
2012,12,05,14,20,4.80
2012,12,05,14,21,1.60
2012,12,05,14,23,1.60
2012,12,05,14,26,1.60
2012,12,05,14,27,3.20
2012,12,05,14,28,3.20
2012,12,05,14,29,4.80
2012,12,05,14,30,4.80
2012,12,05,14,31,6.40
2012,12,05,14,32,4.80
2012,12,05,14,33,6.40
2012,12,05,14,34,11.30
2012,12,05,14,35,9.60
2012,12,05,14,36,9.60
2012,12,05,14,37,6.40
2012,12,05,14,38,6.40
2012,12,05,14,39,6.40
2012,12,05,14,40,9.60
2012,12,05,14,41,3.20
2012,12,05,14,42,8.10
2012,12,05,14,43,6.40
2012,12,05,14,44,3.20
2012,12,05,14,45,9.60
2012,12,05,14,46,12.90
2012,12,05,14,47,14.50
2012,12,05,14,48,9.60
2012,12,05,14,49,12.90
2012,12,05,14,50,12.90
2012,12,05,14,51,12.90
2012,12,05,14,52,12.90
2012,12,05,14,53,11.30
2012,12,05,14,54,9.60
2012,12,05,14,55,8.10
2012,12,05,14,56,9.60
2012,12,05,14,57,9.60
2012,12,05,14,58,11.30
2012,12,05,14,59,14.50
2012,12,05,15,00,12.90
2012,12,05,15,01,9.60
2012,12,05,15,02,11.30
2012,12,05,15,03,14.50
2012,12,05,15,04,12.90
2012,12,05,15,05,9.60
2012,12,05,15,06,8.10
2012,12,05,15,07,11.30
2012,12,05,15,08,12.90
2012,12,05,15,09,11.30
2012,12,05,15,10,6.40
2012,12,05,15,11,11.30
2012,12,05,15,12,6.40
2012,12,05,15,13,12.90
2012,12,05,15,14,9.60
2012,12,05,15,15,9.60
2012,12,05,15,16,9.60
2012,12,05,15,17,8.10
2012,12,05,15,18,9.60
2012,12,05,15,19,6.40
2012,12,05,15,20,8.10
2012,12,05,15,21,9.60
2012,12,05,15,22,6.40
2012,12,05,15,23,6.40
2012,12,05,15,24,11.30
2012,12,05,15,25,11.30
2012,12,05,15,26,8.10
2012,12,05,15,27,6.40
2012,12,05,15,28,3.20
2012,12,05,15,29,3.20
2012,12,05,15,30,11.30
2012,12,05,15,31,12.90
2012,12,05,15,32,8.10
2012,12,05,15,33,8.10
2012,12,05,15,34,9.60
2012,12,05,15,35,9.60
2012,12,05,15,36,9.60
2012,12,05,15,37,9.60
2012,12,05,15,38,9.60
2012,12,05,15,39,8.10
2012,12,05,15,40,8.10
2012,12,05,15,41,6.40
2012,12,05,15,42,6.40
2012,12,05,15,43,9.60
2012,12,05,15,44,8.10
2012,12,05,15,45,8.10
2012,12,05,15,46,9.60
2012,12,05,15,47,8.10
2012,12,05,15,48,9.60
2012,12,05,15,49,8.10
2012,12,05,15,50,9.60
2012,12,05,15,51,11.30
2012,12,05,15,52,9.60
2012,12,05,15,53,9.60
2012,12,05,15,54,11.30
2012,12,05,15,55,9.60
2012,12,05,15,56,9.60
2012,12,05,15,57,8.10
2012,12,05,15,58,3.20
2012,12,05,15,59,8.10
2012,12,05,16,00,8.10
2012,12,05,16,01,8.10
2012,12,05,16,02,8.10
2012,12,05,16,03,8.10
2012,12,05,16,04,9.60
2012,12,05,16,05,6.40
2012,12,05,16,06,8.10
2012,12,05,16,07,6.40
2012,12,05,16,08,6.40
2012,12,05,16,09,6.40
2012,12,05,16,10,6.40
2012,12,05,16,11,6.40
2012,12,05,16,12,8.10
2012,12,05,16,13,6.40
2012,12,05,16,14,6.40
2012,12,05,16,15,6.40
2012,12,05,16,16,6.40
2012,12,05,16,17,9.60
2012,12,05,16,18,8.10
2012,12,05,16,19,8.10
2012,12,05,16,20,9.60
2012,12,05,16,21,6.40
2012,12,05,16,22,6.40
2012,12,05,16,23,6.40
2012,12,05,16,24,8.10
2012,12,05,16,25,6.40
2012,12,05,16,26,3.20
2012,12,05,16,27,6.40
2012,12,05,16,28,6.40
2012,12,05,16,29,6.40
2012,12,05,16,30,6.40
2012,12,05,16,31,6.40
2012,12,05,16,32,3.20
2012,12,05,16,33,3.20
2012,12,05,16,34,1.60
2012,12,05,16,35,3.20
2012,12,05,16,36,3.20
2012,12,05,16,37,3.20
2012,12,05,16,38,3.20
2012,12,05,16,39,3.20
2012,12,05,16,40,3.20
2012,12,05,16,41,1.60
2012,12,05,16,42,3.20
2012,12,05,16,43,3.20
2012,12,05,16,44,6.40
2012,12,05,16,45,6.40
2012,12,05,16,46,6.40
2012,12,05,16,47,3.20
2012,12,05,16,48,3.20
2012,12,05,16,49,3.20
2012,12,05,16,50,6.40
2012,12,05,16,51,6.40
2012,12,05,16,52,3.20
2012,12,05,16,53,3.20
2012,12,05,16,54,3.20
2012,12,05,16,55,6.40
2012,12,05,16,56,6.40
2012,12,05,16,57,6.40
2012,12,05,16,58,1.60
2012,12,05,16,59,3.20
2012,12,05,17,00,3.20
2012,12,05,17,01,3.20
2012,12,05,17,02,1.60
2012,12,05,17,03,1.60
2012,12,05,17,04,1.60
2012,12,05,17,05,3.20
2012,12,05,17,06,3.20
2012,12,05,17,07,1.60
2012,12,05,17,08,6.40
2012,12,05,17,09,6.40
2012,12,05,17,10,8.10
2012,12,05,17,11,8.10
2012,12,05,17,12,8.10
2012,12,05,17,13,6.40
2012,12,05,17,14,6.40
2012,12,05,17,15,9.60
2012,12,05,17,16,11.30
2012,12,05,17,17,24.20
2012,12,05,17,18,19.30
2012,12,05,17,19,22.50
2012,12,05,17,20,16.10
2012,12,05,17,21,9.60
2012,12,05,17,22,9.60
2012,12,05,17,23,6.40
2012,12,05,17,24,6.40
2012,12,05,17,25,4.80
2012,12,05,17,26,6.40
2012,12,05,17,27,6.40
2012,12,05,17,28,4.80
2012,12,05,17,29,3.20
2012,12,05,17,30,3.20
2012,12,05,17,31,6.40
2012,12,05,17,32,4.80